STARLINK-2410, 47825

Orbit data source: Space-Track

STARLINK-2410, 47825 is a payload satellite owned by SpaceX/Seattle (US) in LEO that was launched on Thu, 11 Mar 2021 UTC via an FALCON 9 launch vehicle from the Air Force Eastern Test Range (AFETR). Payload-class satellites include a variety of spacecraft equipped with specific instruments for various scientific and technological missions. These include communications satellites like Starlink; space stations such as the ISS; scientific satellites like the Hubble; Earth observation satellites from companies like Planet Labs, Umbra, and HawkEye 360; GPS; miniature CubeSats for education and research; and military/defense satellites.

Loading next visibility...
Identifier
47825, 2021-018AQ
Orbit
LEO
Country
Flag of USUS
Related business
Manufacturer
SpaceX/Seattle
Mission
Operational Commercial Communications
Bus & Motor
STARLINK, Unknown motor
Mass
260 kg wet, ~248 kg dry
Launch date (UTC)
2021-03-11 (5 years ago)
Launch vehicle
FALCON 9
Launch site
Air Force Eastern Test Range (AFETR)
Object type
Payload
Rocket body
Debris
Shape & HBR
Box + 1 Pan, 10.1 m
Radar Cross Section
13.562 m², Large (>1 m²)

Expand to show TLE details & history
Last TLE update: 20 hours ago

TLE from 20 hours ago
0 STARLINK-2410
1 47825U 21018AQ  25292.09068565 -.00004107  00000-0 -25699-3 0  9995
2 47825  53.0533 167.2833 0001641 112.6947 247.4216 15.06398954255254
Epoch: 2025-10-19T02:10Z
TLE epoch observation values (Epoch: 2025-10-19T02:10:35.240Z)
Latitude
0.00003°
Longitude
106.82415°
Altitude
548.53 km
Speed
7.589 km/s
True Right ascension
11h 09m 07s
True Declination
0° 00' 00"
Sunlit
Object was in daylight at epoch
Visualization orbit readout
Latitude
Unknown
Longitude
Unknown
Altitude
Unknown
Speed
Unknown
Apparent Right ascension
Unknown
Apparent Declination
Unknown
Sunlit
N/A
Visualization observer readout
Local Sidereal Time
16:37:00
Azimuth
Unknown
Elevation
Unknown
Doppler factor
Unknown
Orbital elements
Apogee altitude
548.622 km
Perigee altitude
546.349 km
Semi-major axis
6,925.623 km
Eccentricity
0.00016
Inclination
53.0533°
RAAN
167.2833°
Arg. of periapsis
112.6947°
True anomaly
247.40424°
Mean anomaly
247.4216°
Eccentric anomaly
247.41292°
Mean motion
3.76578 °/min
Orbital period
95.6 mins
BSTAR
-0.00025699
Loading maneuver chart data...
Computing Atmospheric mass density...

Documentation

Showing up to 5 results
|